Regional Weather Roundup
Issued by NWS

Home | Current Version | Previous Version | Graphics & Text | Print | Product List | Glossary On
Versions: 1 2 3 4 5 6 7 8 9 10 11 12 13 14 15 16 17 18 19 20 21 22 23 24 25 26 27 28 29 30 31 32 33 34 35 36 37 38 39 40 41 42 43 44 45 46 47 48 49 50
000
ASUS45 KCYS 210010
RWRWY

WYOMING REGIONAL WEATHER ROUNDUP
NATIONAL WEATHER SERVICE CHEYENNE WY
500 PM MST SAT DEC 20 2014

NOTE:  "FAIR" INDICATES FEW OR NO CLOUDS BELOW 12,000 FEET
WITH NO SIGNIFICANT WEATHER AND/OR OBSTRUCTIONS TO VISIBILITY.

WYZ001-210100-
YELLOWSTONE NATIONAL PARK

CITY           SKY/WX    TMP DP  RH WIND       PRES   REMARKS
LK YELLOWSTONE   N/A     26  20  77 W8        29.91R WCI  18
6HR MIN TEMP:  26; 6HR MAX TEMP:  29; 6HR PCP:  0.02;

W YELLOWSTONE  NOT AVBL

$$
WYZ002>013-054>058-071-098>099-210100-
NORTHERN WYOMING

CITY           SKY/WX    TMP DP  RH WIND       PRES   REMARKS
JACKSON        CLOUDY    32  30  93 S16       29.93F WCI  21
CODY           FAIR      34  21  60 SE10      29.83F WCI  26
GREYBULL       CLOUDY    23  19  85 CALM      29.89R
6HR MIN TEMP:  18; 6HR MAX TEMP:  27;

WORLAND        FAIR      23  18  81 S6        29.87S WCI  16
6HR MIN TEMP:  16; 6HR MAX TEMP:  29;

SHERIDAN       FAIR      36  26  67 E3        29.82F
6HR MIN TEMP:  34; 6HR MAX TEMP:  45;

BUFFALO        MOCLDY    32  24  72 CALM      29.83F
6HR MIN TEMP:  31; 6HR MAX TEMP:  44;

GILLETTE       FAIR      30  24  78 S8        29.84F WCI  22
6HR MIN TEMP:  30; 6HR MAX TEMP:  44;

HULETT           N/A    N/A N/A N/A MISG        N/A
NEWCASTLE      FAIR      32  23  69 E3        29.89S

$$
WYZ014>020-022>026-101>103-210100-
CENTRAL WYOMING

CITY           SKY/WX    TMP DP  RH WIND       PRES   REMARKS
BIG PINEY      FAIR      26  19  74 NE6       29.97S WCI  19
6HR MIN TEMP:  26; 6HR MAX TEMP:  35; 6HR PCP: TRACE;

PINEDALE       FAIR      23  18  80 W5        29.97F WCI  17
DUBOIS         NOT AVBL
LANDER         FAIR      23  19  85 NW5       29.88F WCI  17
6HR MIN TEMP:  20; 6HR MAX TEMP:  31;

RIVERTON       FAIR      18  14  84 N7        29.90F WCI   9
6HR MIN TEMP:  18; 6HR MAX TEMP:  25;

CASPER         CLOUDY    34  27  75 SW14      29.89F WCI  25
6HR MIN TEMP:  34; 6HR MAX TEMP:  36;

DOUGLAS        FAIR      35  24  64 CALM      29.91S
6HR MIN TEMP:  34; 6HR MAX TEMP:  47;


$$
WYZ021-027>030-104>119-210100-
SOUTHERN WYOMING

CITY           SKY/WX    TMP DP  RH WIND       PRES   REMARKS
EVANSTON       FAIR      29  27  92 SW16      30.00F WCI  17
6HR MIN TEMP:  29; 6HR MAX TEMP:  32; 6HR PCP: TRACE;

KEMMERER       CLOUDY    30  28  93 W12       29.99F WCI  21
FORT BRIDGER   FAIR      32  31  94 SW15G21   30.03S WCI  22
ROCK SPRINGS   CLOUDY    31  28  89 SW18      30.00S WCI  19
6HR MIN TEMP:  30; 6HR MAX TEMP:  34; 6HR PCP: TRACE;

DIXON          LGT SNOW  31  28  90 SW10      30.06S WCI  22
RAWLINS        LGT SNOW  29  26  89 SW13      29.98S FOG     WCI  19
6HR MIN TEMP:  30; 6HR MAX TEMP:  33; 6HR PCP: TRACE;

SARATOGA       CLOUDY    30  27  86 SW10      29.99S WCI  21
LARAMIE        FAIR      30  21  69 SW14      29.94F WCI  19
6HR MIN TEMP:  30; 6HR MAX TEMP:  35;

CHEYENNE       FAIR      37  20  50 W13       29.94R WCI  29
6HR MIN TEMP:  37; 6HR MAX TEMP:  46;

TORRINGTON     FAIR     N/A N/A N/A W5        29.90S
PINE BLUFFS    FAIR      34  23  64 W6        29.94R WCI  29

$$



USA.gov is the U.S. government's official web portal to all federal, state and local government web resources and services.